This demonstration page uses our WeatherBlox Daily Observations layout. Learn more.

Left ArrowRight Arrow

39.01783, -85.05884

Hourly Observations for October 7, 2015

Temp ( °F °C ) Dew Point ( °F °C ) Humidity (%) Winds ( mph kmh ) Pressure ( in mb ) Visibility ( mi km ) Precip ( " mm )
12:52 am 00:52 Mostly Clear 64 17.8 55 12.8 73 73 N N/A 30.04 1017 10 16 N/A
1:52 am 01:52 Mostly Cloudy 62 16.7 57 13.9 84 84 N 7 11 30.04 1017 10 16 N/A
2:52 am 02:52 Mostly Clear 60 15.6 56 13.3 86 86 N N/A 30.04 1017 10 16 N/A
3:52 am 03:52 Mostly Clear 60 15.6 56 13.3 86 86 NNW 3 6 30.04 1017 10 16 N/A
4:52 am 04:52 Mostly Cloudy 59 15 56 13.3 90 90 N 3 6 30.05 1018 10 16 N/A
5:52 am 05:52 Mostly Clear 61 16.1 56 13.3 84 84 NE 3 6 30.05 1018 9 14 N/A
6:52 am 06:52 Mostly Clear 59 15 55 12.8 87 87 N 3 6 30.06 1018 8 13 N/A
7:52 am 07:52 Partly Cloudy with Fog 58 14.4 55 12.8 90 90 N N/A 30.09 1019 5 8 N/A
8:52 am 08:52 Partly Cloudy with Mist and Fog 62 16.7 57 13.9 84 84 N N/A 30.10 1019 6 10 N/A
9:52 am 09:52 Mostly Sunny 66 18.9 58 14.4 75 75 NNE 3 6 30.11 1020 8 13 N/A
10:52 am 10:52 Sunny 70 21.1 59 15 68 68 NE 3 6 30.12 1020 9 14 N/A
11:52 am 11:52 Sunny 73 22.8 58 14.4 59 59 N N/A 30.11 1020 10 16 N/A
12:52 pm 12:52 Mostly Sunny 74 23.3 58 14.4 57 57 N N/A 30.12 1020 10 16 N/A
1:52 pm 13:52 Partly Cloudy 76 24.4 59 15 56 56 N N/A 30.11 1020 10 16 N/A
2:52 pm 14:52 Mostly Cloudy 75 23.9 58 14.4 55 55 NW 7 11 30.09 1019 10 16 N/A
3:52 pm 15:52 Partly Cloudy 78 25.6 58 14.4 50 50 N N/A 30.08 1019 10 16 N/A
4:52 pm 16:52 Partly Cloudy 77 25 58 14.4 52 52 N 5 7 30.07 1018 10 16 N/A
5:52 pm 17:52 Mostly Cloudy 79 26.1 58 14.4 49 49 N N/A 30.06 1018 10 16 N/A
6:52 pm 18:52 Partly Cloudy 75 23.9 59 15 58 58 N 3 6 30.07 1018 10 16 N/A
7:52 pm 19:52 Mostly Clear 72 22.2 59 15 64 64 N N/A 30.08 1019 10 16 N/A
8:52 pm 20:52 Clear 67 19.4 59 15 76 76 N N/A 30.09 1019 10 16 N/A
9:52 pm 21:52 Partly Cloudy 66 18.9 58 14.4 75 75 N N/A 30.10 1019 10 16 N/A
10:52 pm 22:52 Mostly Clear 66 18.9 60 15.6 81 81 N 5 7 30.10 1019 10 16 N/A
11:52 pm 23:52 Mostly Clear 66 18.9 59 15 78 78 E 5 7 30.09 1019 10 16 N/A

Powered by AerisWeather